DateTimeUTC,F1_A11,F1_S11,BsB_S11,BsG_S11,BsR_S11,BbsB_S11,BbsG_S11,BbsR_S11,BaB_A11,BaG_A11,BaR_A11,Tu_S11,T_S11,Uu_S11,U_S11,P_S11,T1_A11
2021-06-23T10:00:00Z,00040200,20000000,,,,,,,-000.11,0000.04,-000.02,17.8,24.3,04.3,02.9,0677.0,31.0
2021-06-23T10:01:00Z,00040200,20000000,,,,,,,-000.06,0000.05,-000.40,17.8,24.4,04.2,02.8,0677.0,31.0
2021-06-23T10:02:00Z,00040200,20000000,,,,,,,-000.33,-000.32,0000.07,17.8,24.4,04.2,02.8,0677.0,31.1
2021-06-23T10:03:00Z,00040200,60000000,,,,,,,0000.40,0000.62,-000.06,17.8,24.4,04.2,02.8,0677.0,31.0
2021-06-23T10:04:00Z,00040200,40000000,0000.32,0000.25,0000.21,0000.79,0000.14,0000.04,-000.07,-000.02,0000.33,17.9,24.2,04.3,02.9,0677.9,31.0
2021-06-23T10:05:00Z,00040200,00000000,0000.13,-000.00,0000.16,0000.28,-000.07,-000.05,0000.23,0000.05,0000.08,17.9,24.2,04.3,02.9,0678.0,31.0
2021-06-23T10:06:00Z,00040200,00000000,0000.08,-000.45,-000.04,0000.22,-000.02,0000.28,0000.04,0000.08,-000.01,17.9,24.2,04.3,02.9,0678.0,31.0
2021-06-23T10:07:00Z,00040200,00000000,-000.33,0000.08,-000.30,0000.35,0000.28,0000.04,-000.19,-000.43,-000.43,17.9,24.2,04.2,02.9,0678.0,31.0
2021-06-23T10:08:00Z,00040200,00000000,-000.67,0000.11,0000.05,0000.18,-000.02,0000.17,-000.07,0000.11,0000.32,17.9,24.2,04.3,02.9,0678.0,31.0
2021-06-23T10:09:00Z,00040200,00000000,0000.82,0000.05,0000.12,-000.06,-000.10,-000.02,0000.00,-000.02,-000.09,17.9,24.1,04.2,02.9,0678.0,31.0
2021-06-23T10:10:00Z,00040200,00000000,-000.34,0000.30,0000.19,0000.28,0000.18,-000.00,0000.77,0000.62,0000.48,17.9,24.1,04.2,02.9,0678.0,31.0
2021-06-23T10:11:00Z,00040200,00000000,0000.14,-000.18,0000.25,-000.08,-000.05,0000.01,0000.03,-000.36,0000.03,18.0,24.1,04.2,02.9,0678.0,31.0
2021-06-23T10:12:00Z,00040200,00000000,-000.24,-000.21,0000.13,0000.21,0000.09,-000.35,-000.24,0000.07,0000.04,18.0,24.2,04.2,02.9,0678.0,31.1
2021-06-23T10:13:00Z,00040200,00000000,-000.04,0000.14,0000.12,0000.32,-000.13,-000.19,-000.15,-000.00,-000.35,18.0,24.1,04.2,02.9,0678.0,31.0
2021-06-23T10:14:00Z,00040200,00000000,0000.33,0000.23,0000.27,-000.01,0000.35,0000.11,0000.45,0000.05,0000.30,18.0,24.1,04.2,02.8,0678.0,31.0
2021-06-23T10:15:00Z,00040200,00000000,0000.35,0000.31,0000.48,0000.02,0000.05,0000.16,-000.70,-000.27,-000.15,18.0,24.2,03.9,02.7,0678.0,31.0
2021-06-23T10:16:00Z,00040200,00000000,0000.48,0000.49,0000.26,0000.03,0000.27,0000.01,0000.16,0000.13,0000.15,18.0,24.2,03.9,02.7,0678.0,31.0
2021-06-23T10:17:00Z,00040200,00000000,-000.27,0000.02,-000.07,0000.05,0000.10,0000.09,0001.05,0000.94,0000.56,18.0,24.2,03.9,02.7,0678.0,31.1
2021-06-23T10:18:00Z,00040200,00000000,0000.36,0000.30,0000.16,-000.27,0000.09,0000.16,0000.98,0001.04,0000.84,18.0,24.2,04.2,02.9,0678.0,31.0
2021-06-23T10:19:00Z,00040200,00000000,0000.38,0000.08,-000.05,0000.29,0000.03,-000.04,0000.34,0000.26,-000.09,18.0,24.2,04.4,03.0,0678.0,31.0
2021-06-23T10:20:00Z,00040200,00000000,0000.49,0000.14,0000.02,-000.20,0000.35,0000.06,0000.06,0000.05,0000.06,18.0,24.2,04.4,03.0,0678.0,31.0
2021-06-23T10:21:00Z,00040200,00000000,0000.22,-000.03,0000.61,-000.11,0000.23,-000.12,-001.08,-000.48,-000.34,18.0,24.2,04.3,02.9,0678.0,31.0
2021-06-23T10:22:00Z,00040200,00000000,0000.27,0000.22,-000.04,-000.05,0000.02,-000.42,0000.76,0000.04,0000.49,18.0,24.2,04.2,02.9,0678.0,31.0
2021-06-23T10:23:00Z,00040200,00000000,0000.70,0000.33,0000.03,-000.50,0000.14,-000.18,-000.11,0000.15,-000.31,18.1,24.2,04.3,02.9,0678.0,31.0
2021-06-23T10:24:00Z,00040200,00000000,0000.60,0000.30,0000.06,0000.37,0000.01,-000.14,-000.13,-000.19,-000.01,18.1,24.2,04.2,02.8,0678.0,31.0
2021-06-23T10:25:00Z,00040200,00000000,0000.08,0000.40,0000.04,-000.22,-000.00,-000.06,0000.64,0000.38,-000.12,18.1,24.2,04.1,02.9,0678.0,31.0
2021-06-23T10:26:00Z,00040200,00000000,0000.44,0000.37,-000.09,-000.05,0000.14,-000.41,-000.25,-000.12,0000.59,18.1,24.2,04.1,02.8,0678.0,31.1
2021-06-23T10:27:00Z,00040200,00000000,-000.07,0000.13,0000.07,-000.05,0000.05,-000.22,0000.14,-000.13,-000.13,18.1,24.2,04.1,02.8,0678.0,31.0
2021-06-23T10:28:00Z,00040200,00000000,0000.78,0000.26,0000.32,-000.20,0000.16,0000.02,-000.01,0000.13,-000.16,18.1,24.2,04.0,02.8,0678.0,31.0
2021-06-23T10:29:00Z,00040200,00000000,0000.30,0000.50,0000.18,0000.59,0000.02,0000.03,-000.30,0000.20,0000.02,18.1,24.2,03.9,02.7,0678.0,31.0
2021-06-23T10:30:00Z,00040200,00000000,0000.49,0000.41,-000.06,0000.41,0000.11,-000.07,0000.22,-000.03,0000.03,18.1,24.2,03.9,02.7,0678.0,31.1
2021-06-23T10:31:00Z,00040200,00000000,0000.27,0000.50,0000.10,-000.40,-000.13,0000.02,0000.18,0000.26,0000.22,18.1,24.2,03.8,02.6,0678.0,31.0
2021-06-23T10:32:00Z,00040200,00000000,-000.29,0000.28,0000.21,0000.30,-000.16,0000.12,0000.17,-000.09,0000.08,18.1,24.2,03.7,02.5,0678.0,31.0
2021-06-23T10:33:00Z,00040200,00000000,0000.01,0000.22,0000.26,0000.37,0000.01,-000.18,-000.33,-000.38,-000.47,18.2,24.2,03.7,02.6,0678.0,31.0
2021-06-23T10:34:00Z,00040200,00000000,0000.77,0000.39,-000.07,-000.02,0000.25,-000.17,0000.40,0000.77,0000.71,18.2,24.2,03.6,02.5,0678.0,31.1
2021-06-23T10:35:00Z,00040200,00000000,0000.38,0000.51,0000.28,0000.10,0000.19,0000.04,0000.06,-000.34,-000.05,18.2,24.2,03.7,02.5,0678.0,31.1
2021-06-23T10:36:00Z,00040200,00000000,0000.77,0000.27,0000.36,-000.09,0000.10,-000.11,-000.03,0000.15,0000.32,18.2,24.2,03.6,02.5,0678.0,31.0
2021-06-23T10:37:00Z,00040200,00000000,0000.53,0000.19,0000.30,0000.27,0000.16,-000.11,0000.37,0000.33,-000.30,18.2,24.2,03.7,02.6,0678.0,31.0
2021-06-23T10:38:00Z,00040200,00000000,0000.45,0000.19,0000.27,0000.18,0000.37,-000.04,0000.26,-000.05,0000.45,18.2,24.3,03.7,02.5,0678.0,31.1
2021-06-23T10:39:00Z,00040200,00000000,0000.18,0000.41,0000.39,0000.31,0000.04,0000.02,-000.43,0000.33,-000.10,18.2,24.3,03.5,02.4,0677.9,31.1
2021-06-23T10:40:00Z,00040200,00000000,0000.53,0000.23,-000.01,-000.55,0000.28,0000.02,0000.40,-000.17,0000.00,18.2,24.3,03.5,02.4,0678.0,31.1
2021-06-23T10:41:00Z,00040200,00000000,0000.29,0000.53,0000.03,0000.68,-000.13,-000.07,0000.22,0000.47,0000.69,18.2,24.3,03.4,02.4,0678.0,31.1
2021-06-23T10:42:00Z,00040200,00000000,0000.87,0000.57,0000.29,0000.10,0000.25,-000.02,0000.40,0000.30,0000.07,18.3,24.3,03.5,02.4,0678.0,31.1
2021-06-23T10:43:00Z,00040200,00000000,0001.17,0000.26,0000.56,0000.15,0000.09,0000.24,0000.05,0000.29,-000.13,18.3,24.3,03.5,02.4,0678.0,31.1
2021-06-23T10:44:00Z,00040200,00000000,0000.51,0000.41,0000.22,0000.15,-000.07,0000.10,0000.53,0000.24,0000.59,18.3,24.3,03.6,02.5,0678.0,31.1
2021-06-23T10:45:00Z,00040200,00000000,0000.21,0000.60,0000.10,0000.67,-000.02,0000.06,0000.20,0000.31,0000.04,18.3,24.3,03.5,02.4,0678.0,31.1
2021-06-23T10:46:00Z,00040200,00000000,0000.32,0000.71,0000.35,0000.05,0000.08,-000.14,0000.34,0000.19,0000.05,18.3,24.3,03.6,02.5,0678.0,31.1
2021-06-23T10:47:00Z,00040200,00000000,0000.98,0000.49,0000.33,-000.07,0000.17,-000.17,0000.25,0000.32,0000.15,18.3,24.3,03.6,02.5,0678.0,31.0
2021-06-23T10:48:00Z,00040200,00000000,0000.63,0000.39,0000.38,0000.14,0000.29,0000.05,0000.23,0000.09,0000.70,18.3,24.3,03.6,02.5,0678.0,31.0
2021-06-23T10:49:00Z,00040200,00000000,0000.38,0000.43,0000.24,0000.14,0000.03,-000.00,-000.00,-000.18,-000.38,18.3,24.3,03.5,02.4,0678.0,31.1
2021-06-23T10:50:00Z,00040200,00000000,0000.91,0000.39,0000.20,0000.07,0000.34,-000.36,0000.12,0000.29,0000.07,18.3,24.3,03.5,02.4,0678.0,31.1
2021-06-23T10:51:00Z,00040200,00000000,0000.65,0000.91,-000.03,0000.24,0000.10,-000.06,0000.57,0000.16,0000.56,18.3,24.3,03.4,02.4,0678.0,31.1
2021-06-23T10:52:00Z,00040200,00000000,-000.12,0000.67,0000.38,0000.40,0000.34,0000.04,0000.15,0000.56,-000.03,18.3,24.3,03.4,02.3,0678.0,31.1
2021-06-23T10:53:00Z,00040200,00000000,0000.34,0000.48,0000.13,0000.54,-000.04,-000.31,0000.41,0000.38,0000.22,18.3,24.4,03.4,02.4,0678.0,31.1
2021-06-23T10:54:00Z,00040200,00000000,0000.41,0000.60,0000.45,0000.11,-000.01,0000.42,0000.09,0000.05,0000.38,18.3,24.4,03.4,02.3,0678.0,31.1
2021-06-23T10:55:00Z,00040200,00000000,0000.28,0000.67,0000.19,0000.38,-000.05,-000.32,-000.04,0000.38,-000.01,18.3,24.4,03.3,02.3,0678.0,31.1
2021-06-23T10:56:00Z,00040200,00000000,0000.69,0000.73,0000.45,-000.15,0000.10,0000.16,0000.66,0000.53,0000.52,18.3,24.4,03.4,02.4,0678.1,31.1
2021-06-23T10:57:00Z,00040200,40000000,,,,,,,0001.06,0000.53,0000.65,18.4,24.5,03.5,02.4,0678.1,31.1
2021-06-23T10:58:00Z,00040200,60000000,,,,,,,-000.29,-000.32,-000.55,18.2,24.5,03.5,02.4,0677.1,31.1
2021-06-23T10:59:00Z,00040200,20000000,,,,,,,-000.75,-000.48,-000.11,18.2,24.6,03.3,02.2,0677.1,31.1
